This is the latest recevied weather packets stored in our database for station/object KF7BKV-1. If no packets are shown the sender has not sent any weather packets the latest 1 day(s).
| Time | Temp. | Humidity | Pressure | Rain* | Wind** | Luminosity | Snow |
|---|---|---|---|---|---|---|---|
| 1778039223 | 18.33° C | 32% | 1011.1 hPa | 0 mm | 2.24 m/s, 330° | - | - |
| 1778039163 | 18.33° C | 32% | 1011.1 hPa | 0 mm | 2.24 m/s, 330° | - | - |
| 1778038923 | 18.33° C | 32% | 1010.9 hPa | 0 mm | 2.68 m/s, 320° | - | - |
| 1778038863 | 18.33° C | 32% | 1010.9 hPa | 0 mm | 2.68 m/s, 320° | - | - |
| 1778038743 | 18.89° C | 32% | 1011 hPa | 0 mm | 3.58 m/s, 346° | - | - |
| 1778038503 | 18.89° C | 32% | 1010.7 hPa | 0 mm | 3.13 m/s, 337° | - | - |
| 1778038383 | 18.89° C | 32% | 1010.7 hPa | 0 mm | 3.13 m/s, 337° | - | - |
| 1778038083 | 18.89° C | 33% | 1010.7 hPa | 0 mm | 2.68 m/s, 45° | - | - |
| 1778038023 | 18.89° C | 33% | 1010.7 hPa | 0 mm | 2.68 m/s, 45° | - | - |
| 1778037963 | 18.89° C | 33% | 1010.7 hPa | 0 mm | 2.68 m/s, 45° | - | - |
| 1778037783 | 18.89° C | 33% | 1010.5 hPa | 0 mm | 3.13 m/s, 329° | - | - |
| 1778037543 | 19.44° C | 33% | 1010.6 hPa | 0 mm | 3.58 m/s, 330° | - | - |
| 1778037483 | 19.44° C | 33% | 1010.6 hPa | 0 mm | 3.58 m/s, 330° | - | - |
| 1778037363 | 19.44° C | 33% | 1010.6 hPa | 0 mm | 3.58 m/s, 330° | - | - |
| 1778037184 | 20° C | 32% | 1010.5 hPa | 0 mm | 2.24 m/s, 324° | - | - |
| 1778037123 | 20° C | 32% | 1010.5 hPa | 0 mm | 2.24 m/s, 324° | - | - |
| 1778036944 | 20° C | 31% | 1010.4 hPa | 0 mm | 3.58 m/s, 322° | - | - |
| 1778036883 | 20° C | 31% | 1010.4 hPa | 0 mm | 3.58 m/s, 322° | - | - |
| 1778036825 | 20° C | 31% | 1010.4 hPa | 0 mm | 3.58 m/s, 322° | - | - |
| 1778036763 | 20° C | 31% | 1010.4 hPa | 0 mm | 3.58 m/s, 322° | - | - |
| 1778036703 | 20° C | 31% | 1010.4 hPa | 0 mm | 3.13 m/s, 293° | - | - |
| 1778036583 | 20° C | 31% | 1010.4 hPa | 0 mm | 3.13 m/s, 293° | - | - |
| 1778036463 | 20° C | 31% | 1010.4 hPa | 0 mm | 3.13 m/s, 293° | - | - |
| 1778036223 | 20° C | 31% | 1010.3 hPa | 0 mm | 2.68 m/s, 321° | - | - |
| 1778036103 | 20.56° C | 30% | 1010.1 hPa | 0 mm | 2.24 m/s, 359° | - | - |
* Rain latest hour (hover to see other rain measurements)
** Current wind speed in m/s (hover to see current wind gust speed)